When you browse on this site, cookies collect data to enhance your experience and personalize the content and advertising you see.
Visit our Privacy Policy to learn more. By continuing to use the site, you agree to this use of cookies and data.
  • In Hungary
  • List of Countries
  • For 7 days
  • Water Temperature
  • Satellite Maps
  • Weather Map
  • News
  • Weather Widgets
  • user-avatar
    Login

    Hourly Weather Ilorin

    Today, 22 January, Tuesday

    Time Temperature Precipitation Wind Pressure Humidity
    00:00 +31°C° 0 mm 1 mps 733 mmHg 18%
    01:00 +30°C° 0 mm 1 mps 732 mmHg 31%
    02:00 +29°C° 0 mm 2 mps 732 mmHg 44%
    03:00 +28°C° 0 mm 2 mps 732 mmHg 56%
    04:00 +27°C° 0 mm 2 mps 732 mmHg 65%
    05:00 +27°C° 0 mm 2 mps 732 mmHg 74%
    06:00 +26°C° 0 mm 1 mps 733 mmHg 83%
    07:00 +28°C° 0 mm 2 mps 733 mmHg 73%
    08:00 +30°C° 0 mm 2 mps 734 mmHg 63%
    09:00 +32°C° 0 mm 2 mps 734 mmHg 53%
    10:00 +35°C° 0 mm 2 mps 734 mmHg 42%
    11:00 +37°C° 0 mm 1 mps 733 mmHg 30%
    12:00 +40°C° 0 mm 1 mps 733 mmHg 19%
    13:00 +40°C° 0 mm 1 mps 732 mmHg 17%
    14:00 +41°C° 0 mm 1 mps 731 mmHg 15%
    15:00 +41°C° 0 mm 1 mps 731 mmHg 14%
    16:00 +40°C° 0 mm 1 mps 731 mmHg 14%
    17:00 +39°C° 0 mm 1 mps 731 mmHg 15%
    18:00 +37°C° 0 mm 1 mps 731 mmHg 15%
    19:00 +36°C° 0 mm 1 mps 731 mmHg 15%
    20:00 +35°C° 0 mm 1 mps 732 mmHg 15%
    21:00 +34°C° 0 mm 1 mps 732 mmHg 15%
    22:00 +33°C° 0 mm 1 mps 732 mmHg 25%
    23:00 +32°C° 0 mm 2 mps 732 mmHg 34%

    Tomorrow, 23 January, Wednesday

    Time Temperature Precipitation Wind Pressure Humidity
    00:00 +31°C° 0 mm 3 mps 732 mmHg 44%
    01:00 +30°C° 0 mm 3 mps 732 mmHg 58%
    02:00 +29°C° 0 mm 3 mps 732 mmHg 71%
    03:00 +28°C° 0 mm 2 mps 731 mmHg 85%
    04:00 +28°C° 0 mm 2 mps 732 mmHg 85%
    05:00 +27°C° 0 mm 2 mps 732 mmHg 86%
    06:00 +27°C° 0 mm 2 mps 732 mmHg 86%
    07:00 +28°C° 0 mm 2 mps 733 mmHg 79%
    08:00 +29°C° 0 mm 2 mps 734 mmHg 73%
    09:00 +31°C° 0 mm 2 mps 734 mmHg 66%
    10:00 +34°C° 0 mm 2 mps 734 mmHg 54%
    11:00 +35°C° 0 mm 1 mps 733 mmHg 41%
    12:00 +39°C° 0 mm 1 mps 733 mmHg 29%
    13:00 +39°C° 0 mm 1 mps 732 mmHg 26%
    14:00 +40°C° 0 mm 1 mps 731 mmHg 23%
    15:00 +40°C° 0 mm 1 mps 730 mmHg 20%
    16:00 +39°C° 0 mm 1 mps 730 mmHg 21%
    17:00 +37°C° 0 mm 1 mps 730 mmHg 21%
    18:00 +36°C° 0 mm 1 mps 731 mmHg 22%
    19:00 +35°C° 0 mm 1 mps 731 mmHg 23%
    20:00 +34°C° 0 mm 1 mps 732 mmHg 24%
    21:00 +33°C° 0 mm 1 mps 732 mmHg 25%
    22:00 +32°C° 0 mm 1 mps 732 mmHg 35%
    23:00 +31°C° 0 mm 2 mps 732 mmHg 45%

    Day after tomorrow, 24 January, Thursday

    Time Temperature Precipitation Wind Pressure Humidity
    00:00 +30°C° 0 mm 3 mps 732 mmHg 55%
    01:00 +30°C° 0 mm 3 mps 731 mmHg 63%
    02:00 +29°C° 0 mm 3 mps 731 mmHg 70%
    03:00 +28°C° 0 mm 3 mps 730 mmHg 78%
    04:00 +28°C° 0 mm 3 mps 731 mmHg 79%
    05:00 +28°C° 0 mm 2 mps 731 mmHg 80%
    06:00 +27°C° 0 mm 2 mps 732 mmHg 81%
    07:00 +29°C° 0 mm 2 mps 732 mmHg 74%
    08:00 +30°C° 0 mm 2 mps 733 mmHg 66%
    09:00 +32°C° 0 mm 2 mps 734 mmHg 58%
    10:00 +34°C° 0 mm 2 mps 733 mmHg 52%
    11:00 +35°C° 0 mm 2 mps 732 mmHg 45%
    12:00 +37°C° 0 mm 2 mps 732 mmHg 38%
    13:00 +37°C° 0 mm 2 mps 731 mmHg 35%
    14:00 +38°C° 0 mm 2 mps 730 mmHg 33%
    15:00 +38°C° 0 mm 2 mps 730 mmHg 30%
    16:00 +38°C° 0 mm 2 mps 730 mmHg 31%
    17:00 +37°C° 0 mm 2 mps 730 mmHg 33%
    18:00 +36°C° 0 mm 3 mps 730 mmHg 34%
    19:00 +35°C° 0 mm 3 mps 731 mmHg 39%
    20:00 +35°C° 0 mm 3 mps 732 mmHg 44%
    21:00 +34°C° 0 mm 3 mps 732 mmHg 49%
    22:00 +33°C° 0.1 mm 3 mps 732 mmHg 54%
    23:00 +31°C° 0.1 mm 3 mps 732 mmHg 58%

    25 January, Friday

    Time Temperature Precipitation Wind Pressure Humidity
    00:00 +30°C° 0.1 mm 3 mps 732 mmHg 62%
    01:00 +29°C° 0 mm 3 mps 731 mmHg 66%
    02:00 +29°C° 0 mm 3 mps 731 mmHg 70%
    03:00 +28°C° 0 mm 3 mps 731 mmHg 74%
    04:00 +28°C° 0 mm 3 mps 731 mmHg 75%
    05:00 +28°C° 0 mm 3 mps 732 mmHg 75%
    06:00 +27°C° 0 mm 3 mps 732 mmHg 76%
    07:00 +29°C° 0 mm 3 mps 733 mmHg 70%
    08:00 +30°C° 0 mm 3 mps 733 mmHg 64%
    09:00 +31°C° 0 mm 3 mps 734 mmHg 59%
    10:00 +35°C° 0 mm 2 mps 733 mmHg 48%
    11:00 +37°C° 0 mm 2 mps 733 mmHg 38%
    12:00 +39°C° 0 mm 1 mps 732 mmHg 28%
    13:00 +40°C° 0 mm 1 mps 732 mmHg 26%
    14:00 +40°C° 0 mm 1 mps 731 mmHg 25%
    15:00 +40°C° 0 mm 1 mps 730 mmHg 24%
    16:00 +39°C° 0 mm 2 mps 730 mmHg 26%
    17:00 +38°C° 0 mm 2 mps 730 mmHg 28%
    18:00 +38°C° 0 mm 2 mps 731 mmHg 30%
    19:00 +37°C° 0 mm 3 mps 731 mmHg 35%
    20:00 +36°C° 0 mm 3 mps 732 mmHg 40%
    21:00 +35°C° 0 mm 3 mps 732 mmHg 45%
    22:00 +34°C° 0 mm 3 mps 732 mmHg 51%
    23:00 +33°C° 0 mm 3 mps 732 mmHg 58%

    26 January, Saturday

    Time Temperature Precipitation Wind Pressure Humidity
    00:00 +30°C° 0 mm 3 mps 732 mmHg 64%
    01:00 +30°C° 0 mm 3 mps 731 mmHg 69%
    02:00 +29°C° 0 mm 3 mps 731 mmHg 74%
    03:00 +28°C° 0 mm 3 mps 731 mmHg 79%
    04:00 +28°C° 0 mm 3 mps 731 mmHg 80%
    05:00 +27°C° 0 mm 3 mps 732 mmHg 81%
    06:00 +27°C° 0 mm 3 mps 732 mmHg 82%
    07:00 +29°C° 0 mm 3 mps 733 mmHg 75%
    08:00 +30°C° 0 mm 2 mps 733 mmHg 67%
    09:00 +31°C° 0 mm 2 mps 734 mmHg 60%
    10:00 +35°C° 0 mm 2 mps 734 mmHg 48%
    11:00 +36°C° 0 mm 1 mps 733 mmHg 36%
    12:00 +40°C° 0 mm 1 mps 733 mmHg 25%
    13:00 +40°C° 0 mm 1 mps 732 mmHg 22%
    14:00 +41°C° 0 mm 1 mps 731 mmHg 20%
    15:00 +41°C° 0 mm 1 mps 730 mmHg 18%
    16:00 +40°C° 0 mm 1 mps 730 mmHg 19%
    17:00 +39°C° 0 mm 1 mps 731 mmHg 19%
    18:00 +37°C° 0 mm 1 mps 731 mmHg 20%
    19:00 +36°C° 0 mm 1 mps 731 mmHg 24%
    20:00 +36°C° 0 mm 2 mps 732 mmHg 27%
    21:00 +35°C° 0 mm 2 mps 732 mmHg 31%
    22:00 +33°C° 0 mm 3 mps 732 mmHg 47%
    23:00 +31°C° 0 mm 3 mps 732 mmHg 62%

    27 January, Sunday

    Time Temperature Precipitation Wind Pressure Humidity
    00:00 +29°C° 0 mm 4 mps 731 mmHg 77%
    01:00 +29°C° 0 mm 4 mps 731 mmHg 77%
    02:00 +28°C° 0 mm 4 mps 731 mmHg 77%
    03:00 +28°C° 0 mm 4 mps 731 mmHg 77%
    04:00 +28°C° 0 mm 3 mps 731 mmHg 76%
    05:00 +28°C° 0 mm 3 mps 732 mmHg 76%
    06:00 +28°C° 0 mm 3 mps 732 mmHg 76%
    07:00 +29°C° 0 mm 3 mps 732 mmHg 70%
    08:00 +30°C° 0 mm 3 mps 733 mmHg 64%
    09:00 +31°C° 0 mm 2 mps 733 mmHg 58%
    10:00 +34°C° 0 mm 2 mps 733 mmHg 49%
    11:00 +36°C° 0 mm 2 mps 732 mmHg 40%
    12:00 +38°C° 0 mm 2 mps 731 mmHg 30%
    13:00 +39°C° 0 mm 2 mps 731 mmHg 27%
    14:00 +39°C° 0 mm 2 mps 730 mmHg 25%
    15:00 +40°C° 0 mm 2 mps 729 mmHg 22%
    16:00 +39°C° 0 mm 2 mps 729 mmHg 23%
    17:00 +38°C° 0 mm 2 mps 730 mmHg 24%
    18:00 +37°C° 0 mm 2 mps 730 mmHg 26%
    19:00 +36°C° 0 mm 2 mps 730 mmHg 33%
    20:00 +35°C° 0 mm 3 mps 731 mmHg 41%
    21:00 +34°C° 0 mm 4 mps 732 mmHg 49%
    22:00 +33°C° 0 mm 4 mps 731 mmHg 56%
    23:00 +30°C° 0 mm 4 mps 731 mmHg 63%
    Show more